Header for Extended Forecast Station List Page

Search by: ID | Name | Date | Parm | Value | Avg | % Avg
Sort by: ID | Name | Date | Parm | Value | Avg | % Avg

Enter search or view all records.

Click on id for station plot
#IDNameDateParmValueAvg% Avg
0MYKO3MCKAY CREEK-NEAR PILOT ROCK05-13-2024DISCHARGE (KAF)3566
1WRMO3MALHEUR-WARM SPRINGS DAM05-13-2024INFLOW (KAF)1815120
2RIDI1WILLOW CREEK-RIRIE DAM05-13-2024INFLOW (KAF)4118226
3BERO3MALHEUR-AGENCY VALLEY DAM05-13-2024INFLOW (KAF)202484
4PIHI1PORTNEUF-AT POCATELLO05-13-2024DISCHARGE (KAF)6127222
5GIBO3UMATILLA-NEAR GIBBON05-13-2024DISCHARGE (KAF)252790
6LWRI1LITTLE WOOD-LITTLE WOOD DAM05-13-2024INFLOW (KAF)353696
7UMAO3UMATILLA-NEAR UMATILLA05-13-2024DISCHARGE (KAF)323884
8TCHW1WALLA WALLA-NEAR TOUCHET05-13-2024DISCHARGE (KAF)264261
9PDTO3UMATILLA-AT PENDLETON05-13-2024DISCHARGE (KAF)394292
10SATI1ST MARIES-NEAR SANTA05-13-2024DISCHARGE (KAF)244750
11MILI1SNAKE-AT MILNER05-13-2024DISCHARGE (KAF)35348729
12TNAW1TEANAWAY-BELOW FORKS05-13-2024DISCHARGE (KAF)405573
13KADW1KACHESS-KACHESS DAM05-13-2024INFLOW (KAF)365861
14DLGM8CLARK FORK-AT DEER LODGE05-13-2024DISCHARGE (KAF)176128
15KEDW1YAKIMA-KEECHELUS LAKE05-13-2024INFLOW (KAF)466868
16BUDW1BUMPING-BUMPING LAKE DAM05-13-2024INFLOW (KAF)677688
17EASW1YAKIMA-AT EASTON05-13-2024DISCHARGE (KAF)758490
18DEDI1DEADWOOD-NEAR LOWMAN05-13-2024INFLOW (KAF)708582
19MACI1BIG LOST-MACKAY RESERVOIR NEAR MACKAY05-13-2024INFLOW (KAF)14392155
20HOTI1BRUNEAU-NEAR HOT SPRINGS05-13-2024DISCHARGE (KAF)939993
21MAGI1BIG WOOD-MAGIC DAM05-13-2024INFLOW (KAF)105105101
22OWYO3OWYHEE-OWYHEE DAM05-13-2024INFLOW (KAF)173109159
23HWRI1BIG LOST-AT HOWELL RANCH NEAR CHILLY05-13-2024DISCHARGE (KAF)161122132
24HODO3HOOD-NEAR TUCKER BRIDGE05-13-2024DISCHARGE (KAF)13113696
25RILW1TIETON-RIMROCK LAKE NEAR RIMROCK05-13-2024INFLOW (KAF)12614786
26STRM8ST. REGIS-NEAR ST. REGIS05-13-2024DISCHARGE (KAF)10415070
27ARDW1ENTIAT-NEAR ARDENVOIR05-13-2024DISCHARGE (KAF)12315679
28HALI1BIG WOOD-AT HAILEY05-13-2024DISCHARGE (KAF)157156101
29IPDI1HENRYS FORK-ISLAND PARK DAM05-13-2024INFLOW (KAF)14316885
30WSRI1WEISER-NEAR WEISER05-13-2024DISCHARGE (KAF)171170101
31DRMM8CLARK FORK-NR DRUMMOND05-13-2024DISCHARGE (KAF)7517942
32RCCM8ROCK CREEK-NEAR CLINTON05-13-2024DISCHARGE (KAF)13720666
33MONO3NF JOHN DAY-AT MONUMENT05-13-2024DISCHARGE (KAF)16121575
34UNDW1WHITE SALMON-NEAR UNDERWOOD05-13-2024DISCHARGE (KAF)19422686
35PARI1BOISE-NEAR PARMA05-13-2024DISCHARGE (KAF)284233122
36CHEI1FALL RIVER-NEAR CHESTER05-13-2024DISCHARGE (KAF)19524380
37CLFW1NACHES-NEAR CLIFFDEL05-13-2024DISCHARGE (KAF)20725382
38CLUW1CLE ELUM-CLE ELUM LAKE05-13-2024INFLOW (KAF)18225671
39ARAI1SF BOISE-ANDERSON RANCH DAM05-13-2024INFLOW (KAF)18726970
40BIGI1BOISE-AT GLENWOOD BRIDGE05-13-2024DISCHARGE (KAF)315269117
41CSDI1NF PAYETTE-CASCADE DAM05-13-2024INFLOW (KAF)25429387
42SERO3JOHN DAY-AT SERVICE CK05-13-2024DISCHARGE (KAF)25830983
43PITW1KLICKITAT-NEAR PITT05-13-2024DISCHARGE (KAF)29931296
44PARW1YAKIMA-NEAR PARKER05-13-2024DISCHARGE (KAF)16531952
45TEAI1TETON-NEAR ST. ANTHONY05-13-2024DISCHARGE (KAF)381319119
46NACW1NACHES-NEAR NACHES05-13-2024DISCHARGE (KAF)34438390
47ANTI1HENRYS FORK-AT ST. ANTHONY05-13-2024DISCHARGE (KAF)35946977
48PRTI1PRIEST-NEAR PRIEST RIVER05-13-2024DISCHARGE (KAF)28849758
49REXI1HENRYS FORK-AT REXBURG05-13-2024DISCHARGE (KAF)47654288
50BONM8BLACKFOOT-NEAR BONNER05-13-2024DISCHARGE (KAF)24754845
51KIOW1YAKIMA-AT KIONA05-13-2024DISCHARGE (KAF)46858580
52JLKW4SNAKE-JACKSON LAKE AT DAM05-13-2024INFLOW (KAF)623605103
53PATW1METHOW-NEAR PATEROS05-13-2024DISCHARGE (KAF)41864565
54TRYO3GRANDE RONDE-TROY05-13-2024DISCHARGE (KAF)43071960
55CHDW1CHELAN-LAKE CHELAN DAM05-13-2024INFLOW (KAF)49879762
56UMTW1YAKIMA-AT UMTANUM05-13-2024DISCHARGE (KAF)64282178
57EMMI1PAYETTE-NEAR EMMETT05-13-2024DISCHARGE (KAF)64285575
58BITM8BITTERROOT-NEAR MISSOULA05-13-2024DISCHARGE (KAF)59288367
59LUCI1BOISE-LUCKY PEAK DAM05-13-2024INFLOW (KAF)89196293
60ABOM8CLARK FORK-ABOVE MISSOULA05-13-2024DISCHARGE (KAF)47899748
61PESW1WENATCHEE-AT PESHASTIN05-13-2024DISCHARGE (KAF)83999884
62BFTI1SNAKE-NEAR BLACKFOOT05-13-2024DISCHARGE (KAF)14251002142
63SNAI1SNAKE-AT BLACKFOOT05-13-2024DISCHARGE (KAF)14031039135
64COEI1COEUR D ALENE-COEUR D ALENE LAKE05-13-2024INFLOW (KAF)553108751
65MODO3DESCHUTES-AT MOODY NR BIGGS05-13-2024DISCHARGE (KAF)1125115098
66WGCM8MF FLATHEAD-NEAR WEST GLACIER05-13-2024DISCHARGE (KAF)935115281
67LAUW1KETTLE-AT LAURIER05-13-2024DISCHARGE (KAF)680116558
68TONW1OKANOGAN-NEAR TONASKET05-13-2024DISCHARGE (KAF)469116640
69SPOW1SPOKANE-AT SPOKANE05-13-2024DISCHARGE (KAF)582119749
70FCFM8NF FLATHEAD-NEAR COLUMBIA FALLS05-13-2024DISCHARGE (KAF)883121673
71HHWM8SF FLATHEAD-HUNGRY HORSE DAM05-13-2024INFLOW (KAF)1016135775
72LLKW1SPOKANE-AT LONGLAKE05-13-2024INFLOW (KAF)727139252
73DWRI1NF CLEARWATER-DWORSHAK DAM05-13-2024INFLOW (KAF)978143168
74AFRI1SNAKE-AMERICAN FALLS RESERVOIR05-13-2024INFLOW (KAF)20021533131
75JKSW4SNAKE-NEAR JACKSON05-13-2024DISCHARGE (KAF)17111557110
76SWAI1SNAKE-BELOW SWAN FALLS05-13-2024DISCHARGE (KAF)20301667122
77SHYI1SNAKE-NEAR SHELLEY05-13-2024DISCHARGE (KAF)20361712119
78ALPW4SNAKE-NEAR ALPINE05-13-2024DISCHARGE (KAF)20911910109
79SIFI1SNAKE-AB EAGLE ROCK NR IDAHO FALLS05-13-2024DISCHARGE (KAF)22311914117
80BELM8CLARK FORK-BELOW MISSOULA05-13-2024DISCHARGE (KAF)1070191756
81SRGM8CLARK FORK-AT ST REGIS05-13-2024DISCHARGE (KAF)1457249858
82PLDI1SF SNAKE-PALISADES DAM05-13-2024INFLOW (KAF)29032521115
83ORFI1CLEARWATER-AT OROFINO05-13-2024DISCHARGE (KAF)2243278181
84HEII1SNAKE-NEAR HEISE05-13-2024DISCHARGE (KAF)31492914108
85WEII1SNAKE-AT WEISER05-13-2024DISCHARGE (KAF)33803062110
86BRNI1SNAKE-BROWNLEE DAM05-13-2024INFLOW (KAF)36133358108
87CFMM8FLATHEAD-AT COLUMBIA FALLS05-13-2024DISCHARGE (KAF)2820336184
88LEOI1KOOTENAI-AT LEONIA05-13-2024DISCHARGE (KAF)3386398585
89KERM8FLATHEAD-SELI’Š KSANKA QLISPE’ DAM05-13-2024INFLOW (KAF)3147403678
90WHBI1SALMON-AT WHITEBIRD05-13-2024DISCHARGE (KAF)3838420291
91LYDM8KOOTENAI-LIBBY DAM05-13-2024INFLOW (KAF)4097479685
92SPDI1CLEARWATER-AT SPALDING05-13-2024DISCHARGE (KAF)4019482483
93NOXM8CLARK FORK-NOXON RAPIDS DAM05-13-2024INFLOW (KAF)4424665666
94CABI1CLARK FORK-CABINET GORGE DAM05-13-2024INFLOW (KAF)4841729866
95ALFW1PEND OREILLE-ALBENI FALLS DAM05-13-2024INFLOW (KAF)5394788568
96ANAW1SNAKE-NEAR ANATONE05-13-2024DISCHARGE (KAF)8119917788
97LMNW1SNAKE-LOWER MONUMENTAL DAM05-13-2024INFLOW (KAF)121061429685
98IHDW1SNAKE-ICE HARBOR DAM05-13-2024INFLOW (KAF)121551430385
99LGSW1SNAKE-LITTLE GOOSE DAM05-13-2024INFLOW (KAF)120841431884
100LGDW1SNAKE-LOWER GRANITE DAM05-13-2024INFLOW (KAF)121181434185
101CHJW1COLUMBIA-CHIEF JOSEPH DAM05-13-2024INFLOW (KAF)224192853479
102CIBW1COLUMBIA-AT INTL BOUNDARY05-13-2024DISCHARGE (KAF)225422966376
103GCDW1COLUMBIA-GRAND COULEE DAM05-13-2024INFLOW (KAF)239952996380
104WELW1COLUMBIA-WELLS DAM05-13-2024INFLOW (KAF)233263050176
105RRHW1COLUMBIA-ROCKY REACH DAM05-13-2024INFLOW (KAF)237273139876
106WANW1COLUMBIA-WANAPUM DAM05-13-2024INFLOW (KAF)245823241576
107PRWW1COLUMBIA-PRIEST RAPIDS DAM05-13-2024INFLOW (KAF)245333252075
108MCDW1COLUMBIA-MCNARY DAM05-13-2024INFLOW (KAF)372604810677
109JDAO3COLUMBIA-JOHN DAY DAM05-13-2024INFLOW (KAF)382994818179
110TDAO3COLUMBIA-THE DALLES DAM05-13-2024INFLOW (KAF)386514837880
111BONO3COLUMBIA-BONNEVILLE DAM05-13-2024INFLOW (KAF)392964990979
112BFEI1KOOTENAI-AT BONNERS FERRY05-13-2024STAGE (FT)MMM
113HOPI1PEND OREILLE-LAKE PEND OREILLE NR HOPE05-13-2024LAKE ELEVATION (FT)MMM
114SJMI1ST JOE-AT ST MARIES05-13-2024STAGE (FT)MMM
115BULO3BULLY CREEK-BULLY CREEK DAM05-13-2024INFLOW (KAF)1MM